Weather History for Blytheville Muni Airport, AR

Change the Weather History Date:

Wednesday, February 6, 2013

  Actual Average Record
Temperature  
Mean Temperature 44 °F -  
Max Temperature 55 °F 45 °F 72 °F (1931)
Min Temperature 33 °F 28 °F 5 °F (1978)
Degree Days  
Heating Degree Days 21    
Moisture  
Dew Point 36 °F    
Average Humidity 80    
Maximum Humidity 100    
Minimum Humidity 47    
Precipitation  
Precipitation 0.00 in - - ()
Sea Level Pressure  
Sea Level Pressure 30.15 in    
Wind  
Wind Speed 6 mph (ENE)    
Max Wind Speed 13 mph    
Max Gust Speed -    
Visibility 6 miles    
Events Fog    
Averages and records for this station are not official NWS values.
T = Trace of Precipitation, MM = Missing Value Source: NWS Daily Summary

Daily Weather History Graph

Daily Weather History Graph

Search for Another Location

Airport:

Trip Planner

Search our weather history database for the weather conditions in past years. The results will help you decide how hot, cold, wet, or windy it might be!

Date:

Astronomy

Feb. 06, 2013 Rise Set
Actual Time 6:55 AM CST 5:31 PM CST
Civil Twilight 6:28 AM CST 5:58 PM CST
Nautical Twilight 5:58 AM CST 6:28 PM CST
Astronomical Twilight 5:28 AM CST 6:58 PM CST
Moon 3:35 AM CST (2/6) 1:53 PM CST (2/6)
Length of Visible Light 11h 29m
Length of Day
10h 36m
Waning Crescent, 17% of the Moon is Illuminated
Feb 6
Waning Crescent
Feb 10
New
Feb 17
First Quarter
Feb 25
Full
Mar 4
Last Quarter

Hourly Weather History & Observations

Time (CST) Temp. Windchill Dew Point Humidity Pressure Visibility Wind Dir Wind Speed Gust Speed Precip Events Conditions
12:11 AM 37.4 °F - 37.4 °F 100% 30.08 in 0.5 mi Calm Calm - N/A Fog Fog
12:28 AM 37.4 °F 33.8 °F 35.6 °F 93% 30.09 in 0.2 mi NE 4.6 mph - N/A Fog Fog
12:38 AM 37.4 °F 32.8 °F 35.6 °F 93% 30.10 in 0.5 mi NNE 5.8 mph - N/A Fog Fog
1:11 AM 37.4 °F 32.8 °F 35.6 °F 93% 30.11 in 1.0 mi NNE 5.8 mph - N/A   Mist
1:34 AM 35.6 °F 29.2 °F 35.6 °F 100% 30.11 in 2.0 mi North 8.1 mph - N/A   Scattered Clouds
1:53 AM 36.0 °F 29.0 °F 35.1 °F 97% 30.12 in 6.0 mi North 9.2 mph - N/A   Clear
2:53 AM 37.9 °F 32.7 °F 37.0 °F 97% 30.14 in 3.0 mi NNE 6.9 mph - N/A   Clear
3:07 AM 37.4 °F 31.4 °F 37.4 °F 100% 30.14 in 2.5 mi NE 8.1 mph - N/A   Partly Cloudy
3:34 AM 35.6 °F 29.2 °F 35.6 °F 100% 30.14 in 2.5 mi NNE 8.1 mph - N/A   Mostly Cloudy
3:46 AM 35.6 °F 29.2 °F 35.6 °F 100% 30.14 in 1.2 mi NNE 8.1 mph - N/A   Mostly Cloudy
3:53 AM 36.0 °F 31.1 °F 35.1 °F 97% 30.15 in 0.8 mi NE 5.8 mph - N/A   Mist
4:15 AM 35.6 °F 30.7 °F 33.8 °F 93% 30.15 in 1.0 mi NE 5.8 mph - N/A   Mist
4:39 AM 33.8 °F 29.6 °F 33.8 °F 100% 30.16 in 2.5 mi NE 4.6 mph - N/A   Scattered Clouds
4:51 AM 33.8 °F 29.6 °F 33.8 °F 100% 30.17 in 3.0 mi NE 4.6 mph - N/A   Partly Cloudy
4:53 AM 34.0 °F 29.8 °F 33.1 °F 96% 30.18 in 3.0 mi NE 4.6 mph - N/A   Partly Cloudy
5:53 AM 36.0 °F 29.0 °F 34.0 °F 93% 30.19 in 9.0 mi NE 9.2 mph - N/A   Clear
6:53 AM 35.1 °F 31.0 °F 33.1 °F 92% 30.21 in 8.0 mi ENE 4.6 mph - N/A   Clear
7:53 AM 37.9 °F 33.5 °F 34.0 °F 86% 30.23 in 10.0 mi East 5.8 mph - N/A   Clear
8:53 AM 43.0 °F 37.7 °F 36.0 °F 76% 30.23 in 10.0 mi ENE 9.2 mph - N/A   Clear
9:53 AM 46.9 °F - 36.0 °F 66% 30.25 in 10.0 mi East 12.7 mph - N/A   Clear
10:53 AM 50.0 °F - 36.0 °F 59% 30.24 in 10.0 mi East 8.1 mph - N/A   Clear
11:53 AM 53.1 °F - 37.0 °F 55% 30.21 in 10.0 mi East 10.4 mph - N/A   Clear
12:53 PM 54.0 °F - 36.0 °F 51% 30.18 in 10.0 mi East 9.2 mph - N/A   Clear
1:53 PM 55.9 °F - 37.0 °F 49% 30.17 in 10.0 mi East 4.6 mph - N/A   Clear
2:53 PM 55.0 °F - 35.1 °F 47% 30.14 in 10.0 mi East 8.1 mph - N/A   Clear
3:53 PM 54.0 °F - 37.9 °F 55% 30.12 in 10.0 mi ENE 5.8 mph - N/A   Clear
4:53 PM 52.0 °F - 39.0 °F 61% 30.13 in 10.0 mi NE 3.5 mph - N/A   Clear
5:53 PM 48.9 °F - 39.9 °F 71% 30.12 in 10.0 mi ENE 3.5 mph - N/A   Clear
6:53 PM 48.9 °F - 39.0 °F 69% 30.12 in 10.0 mi ENE 3.5 mph - N/A   Clear
7:53 PM 48.0 °F - 37.9 °F 68% 30.12 in 10.0 mi ENE 4.6 mph - N/A   Clear
8:53 PM 46.9 °F - 37.0 °F 68% 30.11 in 10.0 mi East 6.9 mph - N/A   Clear
9:53 PM 45.0 °F 41.2 °F 36.0 °F 71% 30.09 in 10.0 mi East 6.9 mph - N/A   Clear
10:53 PM 46.0 °F 41.9 °F 35.1 °F 66% 30.08 in 10.0 mi East 8.1 mph - N/A   Clear
11:53 PM 46.0 °F 43.1 °F 36.0 °F 68% 30.06 in 10.0 mi East 5.8 mph - N/A   Clear